Billings, MT

1:43 AM MST on February 25, 2018 (GMT -0700)
Billings Logan International

Weather History for KBIL - April, 2013

Change the Weather History Date:

Monday, April 29, 2013

  Actual Average Record
Temperature  
Mean Temperature 54 °F 50 °F  
Max Temperature 68 °F 62 °F 90 °F (1939)
Min Temperature 39 °F 38 °F 19 °F (1966)
Degree Days  
Heating Degree Days 11 15  
Month to date heating degree days 662 552  
Since 1 July heating degree days 6065 6362  
Cooling Degree Days 0 0  
Month to date cooling degree days 0 0  
Year to date cooling degree days 0 0  
Growing Degree Days 5 (Base 50)    
Moisture  
Dew Point 29 °F    
Average Humidity 42    
Maximum Humidity 61    
Minimum Humidity 22    
Precipitation  
Precipitation T in 0.07 in 0.60 in (1972)
Month to date precipitation 1.02 1.60  
Year to date precipitation 2.16 3.62  
Snow  
Snow 0.00 in 0.20 in 2.60 in (1967)
Month to date snowfall 5.6 8.1  
Since 1 July snowfall 40.4 52.8  
Snow Depth 0.00 in    
Sea Level Pressure  
Sea Level Pressure 29.59 in    
Wind  
Wind Speed 17 mph (West)    
Max Wind Speed 40 mph    
Max Gust Speed 56 mph    
Visibility 10 miles    
Events Rain    
T = Trace of Precipitation, MM = Missing Value Source: NWS Daily Summary

Daily Weather History Graph

Daily Weather History Graph

Search for Another Location

Airport or City:

Trip Planner

Search our weather history database for the weather conditions in past years. The results will help you decide how hot, cold, wet, or windy it might be!

Date:

Astronomy

Apr. 29, 2013 Rise Set
Actual Time 6:04 AM MDT 8:19 PM MDT
Civil Twilight 5:31 AM MDT 8:52 PM MDT
Nautical Twilight 4:50 AM MDT 9:33 PM MDT
Astronomical Twilight 4:05 AM MDT 10:19 PM MDT
Moon No Moon Rise 9:23 AM MDT (4/29)
Length of Visible Light 15h 21m
Length of Day
14h 15m
Waning Gibbous, 79% of the Moon is Illuminated
Apr 29
Waning Gibbous
May 2
Last Quarter
May 9
New
May 17
First Quarter
May 24
Full

Hourly Weather History & Observations

Time (MDT) Temp. Windchill Dew Point Humidity Pressure Visibility Wind Dir Wind Speed Gust Speed Precip Events Conditions
12:53 AM 53.1 °F - 28.9 °F 40% 29.71 in 10.0 mi WNW 6.9 mph - N/A   Partly Cloudy
1:53 AM 51.1 °F - 32.0 °F 48% 29.69 in 10.0 mi SSW 5.8 mph - N/A   Clear
2:53 AM 52.0 °F - 28.9 °F 41% 29.66 in 10.0 mi SW 9.2 mph - N/A   Clear
3:53 AM 48.9 °F - 30.9 °F 50% 29.63 in 10.0 mi SSW 8.1 mph - N/A   Clear
4:53 AM 50.0 °F - 28.9 °F 44% 29.64 in 10.0 mi WSW 6.9 mph - N/A   Clear
5:53 AM 50.0 °F - 27.0 °F 41% 29.60 in 10.0 mi West 5.8 mph - N/A   Scattered Clouds
6:53 AM 46.9 °F - 32.0 °F 56% 29.60 in 10.0 mi SSW 9.2 mph - N/A   Mostly Cloudy
7:53 AM 46.9 °F - 32.0 °F 56% 29.59 in 10.0 mi SW 9.2 mph - N/A   Mostly Cloudy
8:53 AM 48.0 °F - 32.0 °F 54% 29.58 in 10.0 mi SW 10.4 mph - N/A   Mostly Cloudy
9:53 AM 52.0 °F - 34.0 °F 50% 29.56 in 10.0 mi SSW 10.4 mph - N/A   Mostly Cloudy
10:53 AM 55.9 °F - 35.1 °F 45% 29.54 in 10.0 mi WSW 10.4 mph - N/A   Mostly Cloudy
11:53 AM 60.1 °F - 32.0 °F 35% 29.52 in 10.0 mi West 23.0 mph - N/A   Mostly Cloudy
12:53 PM 62.1 °F - 28.9 °F 29% 29.47 in 10.0 mi West 23.0 mph 31.1 mph N/A   Mostly Cloudy
1:53 PM 66.9 °F - 26.1 °F 21% 29.42 in 10.0 mi West 25.3 mph 41.4 mph N/A   Scattered Clouds
2:34 PM 54.0 °F - 37.9 °F 55% 29.50 in 10.0 mi NNW 29.9 mph 46.0 mph 0.00 in Rain Light Rain
2:53 PM 55.0 °F - 39.0 °F 55% 29.45 in 10.0 mi NNW 33.4 mph 42.6 mph 0.00 in   Mostly Cloudy
3:53 PM 51.1 °F - 36.0 °F 56% 29.49 in 10.0 mi NW 34.5 mph 44.9 mph N/A   Overcast
4:53 PM 48.0 °F - 37.0 °F 66% 29.52 in 10.0 mi WNW 33.4 mph 48.3 mph 0.00 in Rain Light Rain
5:53 PM 46.9 °F - 37.0 °F 68% 29.57 in 10.0 mi WSW 15.0 mph 25.3 mph 0.00 in   Overcast
6:53 PM 48.9 °F - 36.0 °F 61% 29.58 in 10.0 mi WSW 15.0 mph - N/A   Mostly Cloudy
7:53 PM 51.1 °F - 25.0 °F 36% 29.61 in 10.0 mi NW 24.2 mph 33.4 mph N/A   Mostly Cloudy
8:01 PM 50.0 °F - 24.1 °F 36% 29.63 in 10.0 mi NW 17.3 mph 31.1 mph N/A   Mostly Cloudy
8:53 PM 48.0 °F - 21.9 °F 36% 29.67 in 10.0 mi WNW 17.3 mph - N/A   Mostly Cloudy
9:53 PM 46.0 °F 39.0 °F 16.0 °F 30% 29.71 in 10.0 mi WNW 17.3 mph 23.0 mph N/A   Mostly Cloudy
10:53 PM 45.0 °F 35.6 °F 12.9 °F 27% 29.70 in 10.0 mi NW 27.6 mph 38.0 mph N/A   Partly Cloudy
11:53 PM 42.1 °F 32.8 °F 12.9 °F 31% 29.72 in 10.0 mi NW 21.9 mph 31.1 mph N/A   Partly Cloudy